Volver al catálogo

HULIANWANG DIGUI-56

ActivoComunicacionesLEO
NORAD 65113·PAYLOAD·🇨🇳 China

Lanzado Aug 4, 2025 desde Wenchang Space Launch Site

Loading…

Próximos Pases (próximas 24 horas)

TLE

ActualizadoSource: Space-Track

Época: Sep 14, 2026, 13:47 UTC

1 65113U 25168H   26257.57487709 -.00000085  00000-0  84544-4 0  9990
2 65113  50.0008   4.7809 0011125  21.0905 339.0424 13.29326004 54583

Sigue HULIANWANG DIGUI-56 en tiempo real con AllMySat

Download on the App Store